Regional Weather Roundup
Issued by NWS

Home | Current Version | Previous Version | Graphics & Text | Print | Product List | Glossary On
Versions: 1 2 3 4 5 6 7 8 9 10 11 12 13 14 15 16 17 18 19 20 21 22 23 24 25 26 27 28 29 30 31 32 33 34 35 36 37 38 39 40 41 42 43 44 45 46 47 48 49 50
000
ASUS45 KABQ 011701
RWRNM
WEATHER ROUNDUP FOR NEW MEXICO
NATIONAL WEATHER SERVICE ALBUQUERQUE NM
1000 AM MST SUN FEB 01 2015

NOTE: "FAIR" MEANS FEW OR NO CLOUDS BELOW 12,000 FEET AGL WITH NO
       SIGNIFICANT WEATHER OR OBSTRUCTIONS TO VISION.

      THIS PRODUCT IS RELEASED AS TWO VERSIONS.  ONE VERSION NEAR
      THE TOP OF THE HOUR CONTAINING PRELIMINARY DATA FROM ALBUQUERQUE
      AND OTHER STATIONS.  A FINAL VERSION WITH ADDITIONAL DATA IS
      ISSUED ABOUT 10 MINUTES AFTER THE HOUR.

NMZ501-503-504-510>518-011800-
NORTHWEST PLATEAU/NORTHCENTRAL MOUNTAINS

CITY           SKY/WX    TMP DP  RH WIND       PRES   REMARKS
FARMINGTON     CLOUDY    31  30  96 CALM      30.15R
SANTA FE       PTSUNNY   32  29  88 N6        30.12R FOG     WCI  26
TAOS           CLOUDY    25  19  80 CALM      30.13R

$$
NMZ402-403-502-505>509-011800-
WESTCENTRAL MOUNTAINS/SOUTHWEST MOUNTAINS

CITY           SKY/WX    TMP DP  RH WIND       PRES   REMARKS
GALLUP         FOG       32  28  85 CALM      30.19R VSB 1/2
SILVER CITY    SUNNY     46  37  71 N5        30.12R

$$
NMZ407-409-411-412-011800-
SOUTHERN DESERTS

CITY           SKY/WX    TMP DP  RH WIND       PRES   REMARKS
DEMING         CLOUDY    41  41 100 CALM      30.12R FOG
HOLLOMAN AFB   SUNNY     50  41  72 NW10      30.08R
ALAMOGORDO     SUNNY     50  41  71 W6        30.09R
T OR C         SUNNY     45  38  76 VRB3      30.11R

$$
NMZ519>523-011800-
CENTRAL VALLEYS/CENTRAL HIGHLANDS

CITY           SKY/WX    TMP DP  RH WIND       PRES   REMARKS
ALBUQUERQUE    MOSUNNY   41  31  67 N9        30.14R
DOUBLE EAGLE   MOSUNNY   37  28  70 NW14      30.14R WCI  29
CLINES CORNERS CLOUDY    33  29  85 NW3       30.09R
BELEN          FAIR      43  32  66 N13       30.15R
SOCORRO        NOT AVBL

$$
NMZ524>526-539-540-011800-
SOUTHCENTRAL MOUNTAINS

CITY           SKY/WX    TMP DP  RH WIND       PRES   REMARKS
RUIDOSO        NOT AVBL

$$
NMZ527>531-011800-
NORTHEAST HIGHLANDS/NORTHEAST PLAINS

CITY           SKY/WX    TMP DP  RH WIND       PRES   REMARKS
LAS VEGAS      CLOUDY    32  30  92 S6        30.11R WCI  26
RATON          CLOUDY    30  22  72 E6        30.10R WCI  24
CLAYTON        SUNNY     34  21  59 N23G29    30.13R WCI  22

$$
NMZ532>537-011800-
EASTCENTRAL PLAINS

CITY           SKY/WX    TMP DP  RH WIND       PRES   REMARKS
TUCUMCARI      CLOUDY    40  31  70 NE14      30.15R WCI  32
CANNON AFB     NOT AVBL
CLOVIS AIRPORT MOSUNNY   39  30  70 N28       30.13R WCI  28

$$
NMZ028-029-538-011800-
SOUTHEAST PLAINS

CITY           SKY/WX    TMP DP  RH WIND       PRES   REMARKS
ROSWELL        CLOUDY    42  36  79 N13       30.14R
ARTESIA        PTSUNNY   46  45  93 N15       30.14R
CARLSBAD       CLOUDY    45  42  89 NW15      30.12R
HOBBS          CLOUDY    41  41 100 N18       30.12R


$$


USA.gov is the U.S. government's official web portal to all federal, state and local government web resources and services.